Location: Lecco
(45.8566°N, 9.3977°E)
Time: 06:54:54
(UTC+02:00)

ISS - Pass Details

Date: 19 July 2018
Orbit: 402 x 408 km, 51.6° (Epoch: 18 July)

Event Time Altitude Azimuth Distance (km) Brightness Sun altitude
Exits shadow 01:30:34 - 283° (WNW) 1,643 -0.6 -23.2°
Reaches altitude 10° 01:31:02 10° 286° (WNW) 1,465 -0.8 -23.2°
Maximum altitude 01:34:01 31° 351° (N) 744 -1.9 -23.2°
Drops below altitude 10° 01:37:00 10° 56° (NE) 1,470 -0.6 -23.2°
Sets 01:39:14 0° 67° (ENE) 2,332 0.4 -23.2°
